sat.trackr.live / text

‹ back to catalog

STARLINK-4312

NORAD 53065 · 2022-077Y

PAYLOAD ACTIVE UNKNOWN

§ Identity

Operator
Country
US
Launch date
2022-07-11
Launch site
AFWTR
Launch vehicle
Mass (kg)
RCS (m²)

Purposes: comms

External: N2YO · Heavens-Above · Gunter

§ Orbital elements

Epoch: 2026-09-19T17:35:03.571872Z

Period
93.91 min
Inclination
97.2855°
Eccentricity
0.0001603
Mean motion
15.33435632 rev/d
Perigee alt
464.5 km
Apogee alt
466.7 km
Semi-major
6,843.7 km
B*
2.2672e-5
RAAN
77.5458°
Arg perigee
88.3754°
Mean anomaly
271.7672°
Rev number
23,017

§ Raw data

STARLINK-43121 53065U 22077Y   26262.73268023  .00000657  00000+0  22672-4 0  99962 53065  97.2855  77.5458 0001603  88.3754 271.7672 15.33435632230178

JSON: /api/v1/satellites/53065 · /tle

For live sub-satellite position, see the globe view (requires WebGL).

§ Visibility from observer

Set your observer location to see the next 7 days of passes ≥ 10°. The values pass through the URL so the page stays shareable.

No JS? Fill the form by hand. The geolocation button needs JavaScript.